Starlink 3042

decayed
NORAD ID: 49142 Int'l Des: 2021-082 Owner: SPXS Country: US Constellation: starlink
LEOCIRCULAR
Gruppe

Über Starlink 3042

Beschreibung wird geladen...

Höhenverlauf

Altitude vs Time

uPlot chart will show altitude changes over time

Zweizeiliger Elementsatz

1 49142U 21082N 25141.10800520 .15326854 44942-5 12971-3 0 9997
2 49142 69.9835 247.8149 0012190 259.4207 169.3225 16.51474736203725
Epoch: 21. Mai 2025 • Age: 5045 hours

Aktueller Status

Position data unavailable
Startdatum 14. Sept. 2021
Alter 4.2 years
Verglühungsdatum 21. Mai 2025
Typ internet

Technische Details

Klassifizierung Payload
Masse 297.00 kg
Trockenmasse 275.00 kg
Gesamtmasse 297.00 kg
Länge 0.20 m
Durchmesser 2.80 m
Spannweite 9.00 m
Form Box + pan
Hersteller SPXS
Bus-Typ Starlink
Phasenstatus Reentered
Besitzer/Staat SPXS/US

Große Konstellationen

Loading constellations...